Zurück zum Katalog

TIANGONG

MENGTIAN

AktivWissenschaftVLEO
NORAD 54216·PAYLOAD·🇨🇳 China

Gestartet Oct 31, 2022 von Wenchang Space Launch Site

Loading…

Nächste Überflüge (nächste 24 Stunden)

TLE

AktuellSource: Space-Track

Epoche: Sep 14, 2026, 14:01 UTC

1 54216U 22143A   26257.58463244  .00018605  00000-0  22780-3 0  9990
2 54216  41.4676 139.2408 0002663 278.8217  81.2320 15.59928303307738

Verfolge TIANGONG in Echtzeit mit AllMySat

Download on the App Store